Lid_Strength_Index
13 14 15 15 16 16 17 17 17 15 15 16 15 15 14 12 12 12 12 13 12 11 10 9 9 8 7 6 6 5 6 6 5 4 4 3 3 2 1 0 0 -0 -1 -1
14 15 16 15 15 16 17 17 16 16 16 16 16 16 13 13 14 13 13 12 12 11 10 10 9 8 7 7 6 5 5 5 5 5 5 4 5 4 4 3 2 1 1 -0
15 16 15 16 16 17 16 17 18 17 16 16 17 14 13 14 14 13 12 12 12 11 11 10 9 9 8 8 7 6 6 6 6 6 5 6 5 4 4 3 2 2 2 1
15 15 16 16 17 16 18 16 17 17 17 17 17 17 13 14 14 13 12 12 11 11 11 10 10 9 9 9 8 7 7 7 6 6 6 7 7 7 6 5 3 3 3 3
16 16 16 17 16 16 17 16 17 17 19 20 19 19 13 15 14 13 12 12 11 10 10 11 10 10 9 9 8 8 8 7 7 7 7 7 7 6 6 6 5 3 3 2
16 14 15 15 15 16 15 17 18 18 18 19 21 19 14 13 14 14 14 12 11 11 11 11 10 10 10 9 9 8 8 8 8 8 7 8 8 7 7 6 6 6 5 4
17 16 15 15 16 15 16 18 18 19 18 17 20 20 15 13 14 14 13 12 12 11 11 11 10 10 10 10 9 9 8 8 8 8 8 8 8 8 8 7 6 6 6 6
16 17 16 15 16 17 17 18 17 20 19 18 22 20 15 14 14 13 13 12 12 11 11 11 10 10 10 10 10 9 8 9 9 9 9 8 9 8 7 7 6 6 6 6
18 18 16 16 15 16 18 19 18 21 27 22 18 17 15 14 14 14 13 13 12 11 11 10 10 11 11 10 9 9 9 9 9 9 9 9 9 9 8 8 8 7 6 6
17 18 17 16 15 16 17 16 19 19 21 21 18 19 16 14 14 14 14 13 12 12 11 11 11 11 10 10 9 9 9 10 10 10 10 11 10 9 7 7 7 7 8 7
16 17 19 17 17 17 18 18 18 19 19 20 20 16 14 13 12 13 13 13 12 12 11 11 12 11 10 9 8 9 10 11 11 11 11 11 11 10 9 9 8 8 8 8
15 17 19 17 17 17 17 17 17 18 19 21 22 19 14 13 13 14 13 13 12 12 12 12 12 11 10 9 9 10 11 11 12 12 12 11 11 10 10 9 9 8 9 9
15 17 18 17 19 18 18 17 17 19 19 20 20 17 15 15 14 13 13 12 12 12 12 13 12 11 9 10 10 11 12 13 13 12 12 11 11 10 10 10 9 9 9 9
11 15 16 17 16 18 19 18 17 18 20 19 19 17 14 12 12 11 11 12 12 13 13 13 12 10 10 11 11 12 13 13 13 13 12 11 10 10 10 9 9 9 9 9
11 17 17 16 16 17 18 18 17 19 18 19 17 16 14 12 12 12 12 12 14 14 14 14 13 10 11 12 12 13 13 13 14 13 12 11 9 9 10 10 10 9 9 9
12 14 18 20 17 17 18 17 17 17 17 17 17 17 13 12 12 13 13 13 14 14 14 14 12 12 12 12 13 14 14 14 14 13 12 11 11 10 10 10 10 9 9 9
13 15 17 16 19 20 20 20 17 16 15 16 19 16 13 13 13 13 14 14 14 14 15 14 12 13 12 13 13 14 14 14 14 13 12 11 10 11 11 10 9 10 9 10
13 14 14 15 19 19 13 14 14 15 15 14 15 14 13 13 12 14 13 14 14 15 15 12 12 12 12 13 13 14 14 15 15 14 12 11 11 11 11 11 11 10 10 10
9 12 15 16 17 15 13 11 15 17 16 14 15 14 14 13 15 14 15 14 14 15 14 12 12 12 13 13 13 14 15 15 15 14 13 12 11 11 11 11 11 11 11 11
11 11 13 19 18 19 12 13 14 14 16 13 15 15 15 16 17 14 14 14 13 15 14 13 12 11 13 13 13 14 15 15 15 14 13 12 11 11 12 11 12 12 12 12
15 14 16 15 16 15 12 12 13 15 12 12 14 15 15 16 14 14 14 14 14 15 14 12 12 12 13 13 13 14 15 15 15 14 13 13 12 11 11 11 11 12 12 12
16 16 16 15 17 19 11 13 14 9 11 11 13 13 13 14 14 14 14 14 14 15 14 12 12 13 13 13 13 14 15 15 14 14 14 14 13 12 11 11 11 11 11 12
15 12 13 13 14 10 11 9 9 10 11 11 12 11 12 13 13 13 14 14 14 13 13 12 12 13 13 13 13 14 14 14 14 14 14 14 13 13 13 12 11 11 11 12
14 11 13 12 11 11 10 10 9 9 10 9 10 11 11 12 13 14 14 14 15 14 12 12 11 13 13 14 13 14 14 14 14 15 14 14 14 14 13 13 12 12 12 12
10 12 12 12 10 9 8 8 8 7 7 8 9 11 12 12 13 14 15 15 15 14 13 12 11 12 12 13 14 14 14 14 14 14 14 14 14 14 14 14 13 13 13 13
10 11 13 13 9 9 8 6 6 7 8 8 9 11 12 12 13 14 15 15 15 14 13 13 12 12 11 12 14 15 16 15 14 14 14 14 13 13 14 14 14 12 12 12